FREGAT R/B, 47720

Orbit data source: Space-Track

FREGAT R/B, 47720 is space debris originally from a launch on Sun, 28 Feb 2021 UTC launched from the Tyuratam Missile And Space Complex (TTMTR). Debris objects in space refer to the collection of defunct objects orbiting the Earth. Examples of debris include non-operational satellites, rocket bodies, and fragments generated from explosions, collisions, or faulty payload assembly.

Loading next visibility...
Identifier
47720, 2021-016B
Orbit
Molniya
Country
Flag of CISCIS
Related business
Manufacturer
Lavochkin
Mission
Spacecraft
Bus & Motor
FREGAT, Unknown motor
Mass
1,000 kg wet, 1,000 kg dry
Launch date (UTC)
2021-02-28 (5 years ago)
Launch vehicle
Unknown
Launch site
Tyuratam Missile And Space Complex (TTMTR)
Object type
Payload
Rocket body
Debris
Shape & HBR
Cyl, 1.7 m
Radar Cross Section
8.354 m², Large (>1 m²)

Expand to show TLE details & history
Last TLE update: 2 days ago

TLE from 2 days ago
0 FREGAT R/B
1 47720U 21016B   26170.98627314 -.00001110  00000-0  76769-3 0  9998
2 47720  63.2573  49.1491 7410091 267.6340  14.3750  1.98977411 38497
Epoch: 2026-06-19T23:40Z
TLE epoch observation values (Epoch: 2026-06-19T23:40:13.999Z)
Latitude
-0.00007°
Longitude
145.96083°
Altitude
6,068.26 km
Speed
7.009 km/s
True Right ascension
03h 16m 54s
True Declination
0° 00' 00"
Sunlit
Object was in daylight at epoch
Visualization orbit readout
Latitude
Unknown
Longitude
Unknown
Altitude
Unknown
Speed
Unknown
Apparent Right ascension
Unknown
Apparent Declination
Unknown
Sunlit
N/A
Visualization observer readout
Local Sidereal Time
21:25:16
Azimuth
Unknown
Elevation
Unknown
Doppler factor
Unknown
Orbital elements
Apogee altitude
40,107.263 km
Perigee altitude
536.988 km
Semi-major axis
26,700.263 km
Eccentricity
0.74101
Inclination
63.2573°
RAAN
49.1491°
Arg. of periapsis
267.634°
True anomaly
92.25072°
Mean anomaly
14.375°
Eccentric anomaly
43.71633°
Mean motion
0.49747 °/min
Orbital period
723.66 mins
BSTAR
0.00076769
Loading maneuver chart data...
Computing Atmospheric mass density...
Loading historical data...
Loading historical data...
Loading historical data...
Loading historical data...
Loading historical data...
Loading historical data...
Loading historical data...
Other satellites on launch #16 in the year 2021 (2021-02-28 UTC)

Documentation

Showing up to 5 results
|